Observations for Trim Patrick St
| Time | AQI | Temp °C | Hum % | Pres Pa | CO μg/m³ | H₂S μg/m³ | NO μg/m³ | NO₂ μg/m³ | O₃ μg/m³ | SO₂ μg/m³ | PM1 μg/m³ | PM2.5 μg/m³ | PM10 μg/m³ |
|---|---|---|---|---|---|---|---|---|---|---|---|---|---|
| Thursday 27 August 2026 | |||||||||||||
| 04:36 | 2 | 16.3 | 88 | 38,288 | 0.24 | 1.47 | 1.44 | 18.22 | 37.33 | 0 | 20.86 | 29.98 | 30.79 |
| 04:34 | 2 | 16.3 | 89 | 38,288 | 0.24 | 0.25 | 1.22 | 15.3 | 37.12 | 0 | 20 | 27.14 | 28.01 |
| 04:32 | 2 | 16.3 | 89 | 38,288 | 0.24 | 0.77 | 1.15 | 15.89 | 34.64 | 0 | 20.86 | 27.16 | 29.88 |
| 04:31 | 2 | 16.3 | 88 | 38,288 | 0.24 | 0.67 | 1.16 | 21.24 | 40.69 | 0 | 20.86 | 27.93 | 30.72 |
| 04:30 | 2 | 16.3 | 88 | 38,288 | 0.24 | 0 | 1.19 | 15.38 | 31.57 | 0 | 19.14 | 27.19 | 29.91 |
| 04:29 | 2 | 16.3 | 88 | 38,288 | 0.24 | 0.72 | 1.26 | 18.27 | 36.43 | 0 | 20 | 27.9 | 30.69 |
| 04:28 | 2 | 16.2 | 88 | 38,288 | 0.25 | 0.09 | 1.41 | 19.41 | 36.27 | 0 | 20.86 | 27.22 | 29.94 |
| 04:25 | 2 | 16.2 | 87 | 38,288 | 0.24 | 1.06 | 1.44 | 24.46 | 41.92 | 0 | 20 | 26.75 | 29.42 |
| 04:24 | 2 | 16.2 | 88 | 38,288 | 0.25 | 0.38 | 1.34 | 15.6 | 32.42 | 0 | 20 | 26.59 | 29.25 |
| 04:23 | 2 | 16.2 | 88 | 38,288 | 0.24 | 1.29 | 1.49 | 22.18 | 41.4 | 0 | 21.72 | 27.94 | 30.73 |
| 04:22 | 2 | 16.2 | 88 | 38,288 | 0.24 | 1.42 | 1.42 | 21.86 | 40.1 | 0 | 20.86 | 28 | 30.79 |
| 04:20 | 2 | 16.2 | 88 | 38,288 | 0.24 | 1.21 | 1.36 | 18.35 | 37.86 | 0 | 21.72 | 27.97 | 30.76 |
| 04:19 | 2 | 16.2 | 87 | 38,288 | 0.24 | 1.45 | 1.42 | 22.6 | 40.02 | 0 | 20 | 26.69 | 29.36 |
| 04:18 | 2 | 16.2 | 88 | 38,288 | 0.24 | 1.55 | 1.23 | 23.77 | 37.31 | 0 | 21.72 | 26.63 | 29.29 |
| 04:17 | 2 | 16.2 | 88 | 38,288 | 0.24 | 1.19 | 1.48 | 21.73 | 39.06 | 0 | 20 | 26.51 | 29.16 |
| 04:14 | 2 | 16.2 | 88 | 38,288 | 0.24 | 0.48 | 1.71 | 16.99 | 28.33 | 0 | 21.72 | 27.9 | 28.19 |
| 04:13 | 2 | 16.2 | 88 | 38,288 | 0.24 | 0.54 | 1.61 | 20.13 | 33.17 | 0 | 20 | 27.22 | 29.94 |
| 04:12 | 2 | 16.2 | 88 | 38,288 | 0.23 | 0.59 | 1.45 | 15.4 | 32.08 | 0 | 20.86 | 26.49 | 29.14 |
| 04:11 | 2 | 16.2 | 87 | 38,288 | 0.24 | 2.26 | 1.37 | 25.16 | 43.93 | 0 | 20 | 27.35 | 30.09 |
| 04:10 | 2 | 16.2 | 88 | 38,288 | 0.23 | 1.19 | 1.37 | 20.51 | 38.54 | 0 | 18.29 | 25.16 | 27.67 |